Regional Weather Roundup
Issued by NWS Midland/Odessa, TX

Home | Current Version | Previous Version | Text Only | Print | Product List | Glossary On
Versions: 1 2 3 4 5 6 7 8 9 10 11 12 13 14 15 16 17 18 19 20 21 22 23 24 25 26 27 28 29 30 31 32 33 34 35 36 37 38 39 40 41 42 43 44 45 46 47 48 49 50
000
ASUS44 KMAF 230610
RWRMAF
MIDLAND AREA WEATHER ROUNDUP
NATIONAL WEATHER SERVICE MIDLAND TX
1200 AM CST THU FEB 23 2017

...IN SOUTHWEST TEXAS AND SOUTHEAST NEW MEXICO...

CITY           SKY/WX    TMP DP  RH WIND       PRES   REMARKS
ALPINE         CLEAR     57  24  28 SW9       29.96F
ANDREWS        FAIR      62  28  27 W10       29.80F
ARTESIA        CLEAR     61  30  31 SW15      29.78F
BIG SPRING     CLEAR     59  32  36 SE12      29.78F
CARLSBAD       CLEAR     53  24  32 S9        29.78F
DRYDEN           N/A     60  35  39 CALM      29.77F
FORT STOCKTON  CLEAR     62  25  24 SW13      29.81F
GUAD PASS      CLEAR     60  24  25 SW14      29.93F
HOBBS          CLEAR     54  23  30 SW6       29.82F
MARFA          CLEAR     42  18  37 N6        29.95F WCI  38
MIDLAND AIRPK  CLEAR     60  32  34 W6        29.79F
MIDLAND INTL   CLEAR     58  33  39 S3        29.78F
ODESSA         CLEAR     61  27  27 NW6       29.79F
PECOS          CLEAR     55  24  30 SW6       29.78F
PRESIDIO       FAIR      65  23  20 N9        29.82F
SEMINOLE       CLEAR     57  27  31 W10       29.80F
SNYDER         CLEAR     58  37  44 S7        29.75F
WINK           CLEAR     60  27  28 W7        29.77F
$$
...OTHER STATIONS IN TEXAS...

CITY           SKY/WX    TMP DP  RH WIND       PRES   REMARKS
ABILENE        CLEAR     58  42  55 S10       29.73F
AMARILLO       CLOUDY    52  32  46 W5        29.74F
AUSTIN         CLEAR     53  49  86 CALM      29.75F
BROWNSVILLE    CLEAR     61  60  97 S5        29.81F
CORPUS CHRISTI CLEAR     65  59  81 S10       29.78S
DALLAS FTW     CLEAR     63  50  62 S5        29.68F
DEL RIO        CLEAR     60  42  51 CALM      29.74F
EL PASO        CLEAR     62  27  26 SW8       29.85F
HOUSTON INT    CLEAR     62  48  60 S5        29.78F
LUBBOCK        CLEAR     58  28  32 SW9       29.75F
SAN ANGELO     CLEAR     55  39  54 CALM      29.77S
SAN ANTONIO    CLEAR     59  48  67 CALM      29.78S
WACO           CLEAR     55  49  80 S8        29.72F
WICHITA FALLS  NOT AVBL
$$
...OTHER LOCATIONS IN NEW MEXICO...

CITY           SKY/WX    TMP DP  RH WIND       PRES   REMARKS
ALAMAGORDO     CLEAR     54  32  43 S12       29.84F
ALBUQUERQUE    MOCLDY    49  29  46 SE7       29.85F
CANNON AFB     CLOUDY    49  32  51 SW6       29.78F
CLOVIS         CLOUDY    46  34  61 NW6       29.78F
HOLLOMAN AFB   CLEAR     57  30  36 S12       29.85F
ROSWELL        CLEAR     56  29  35 SW10        N/A
RUIDOSO        CLOUDY    50  25  37 SW15      29.94F
SANTA FE       CLOUDY    47  25  42 S7        29.86F
TRUTH OR CONSE CLEAR     59  31  34 SW10      29.85S
TUCUMCARI      PTCLDY    47  32  56 CALM      29.75F
$$




USA.gov is the U.S. government's official web portal to all federal, state and local government web resources and services.